AVA640 MGGT-KLAX

Flight info

Callsign AVA640
Flight time 4h 56m
Altitude 34000
Route ULEBI UW3 ASOKU UL655 LEXUX/N0459F360 UL655 PPE J93 AXASA DCT ASUTA DCT AMMOR OLAAA2
Aircraft A320/M-SDE3FGHIRWY/LB1

Departure

Time 2026-04-25 16:58
Airport La Aurora International Airport (MGGT)

Arrival

Time 2026-04-25 21:54
Airport Los Angeles International Airport (KLAX)
Time Latitude Longitude Altitude Speed Heading
2026-04-25 16:32 14.58936 -90.52878 4947 ft 0 kts 287°
2026-04-25 16:49 14.58931 -90.52861 4957 ft 3 kts 287°
2026-04-25 16:49 14.58926 -90.52843 4958 ft 3 kts 287°
2026-04-25 16:49 14.58920 -90.52826 4955 ft 2 kts 275°
2026-04-25 16:50 14.58917 -90.52809 4959 ft 2 kts 255°
2026-04-25 16:50 14.58921 -90.52791 4955 ft 3 kts 255°
2026-04-25 16:50 14.58930 -90.52777 4958 ft 3 kts 208°
2026-04-25 16:50 14.58945 -90.52768 4960 ft 3 kts 196°
2026-04-25 16:51 14.58946 -90.52768 4960 ft 0 kts 197°
2026-04-25 16:54 14.58940 -90.52770 4959 ft 5 kts 197°
2026-04-25 16:54 14.58898 -90.52781 4956 ft 7 kts 189°
2026-04-25 16:54 14.58833 -90.52769 4959 ft 11 kts 152°
2026-04-25 16:54 14.58786 -90.52709 4958 ft 11 kts 108°
2026-04-25 16:55 14.58820 -90.52659 4963 ft 8 kts 18°
2026-04-25 16:55 14.58862 -90.52645 4963 ft 9 kts 16°
2026-04-25 16:55 14.58934 -90.52623 4966 ft 9 kts 17°
2026-04-25 16:55 14.59004 -90.52600 4970 ft 17 kts 17°
2026-04-25 16:56 14.59148 -90.52553 4976 ft 22 kts 17°
2026-04-25 16:56 14.59279 -90.52511 4980 ft 18 kts 17°
2026-04-25 16:56 14.59378 -90.52479 4985 ft 12 kts 17°
2026-04-25 16:56 14.59447 -90.52457 4987 ft 14 kts 17°
2026-04-25 16:57 14.59555 -90.52422 4989 ft 15 kts 17°
2026-04-25 16:57 14.59576 -90.52369 4988 ft 14 kts 108°
2026-04-25 16:57 14.59505 -90.52370 4987 ft 4 kts 197°
2026-04-25 16:57 14.59457 -90.52385 4988 ft 16 kts 197°
2026-04-25 16:58 14.59119 -90.52494 4975 ft 87 kts 197°
2026-04-25 16:58 14.58337 -90.52746 4951 ft 145 kts 197°
2026-04-25 16:58 14.57240 -90.53104 5178 ft 170 kts 198°
2026-04-25 16:58 14.56147 -90.53460 5990 ft 166 kts 197°
2026-04-25 16:59 14.54982 -90.53825 6303 ft 185 kts 197°
2026-04-25 16:59 14.53693 -90.54235 6459 ft 202 kts 197°
2026-04-25 16:59 14.52299 -90.54686 6608 ft 219 kts 197°
2026-04-25 16:59 14.50760 -90.55092 6730 ft 240 kts 186°
2026-04-25 17:00 14.49024 -90.54997 6927 ft 263 kts 166°
2026-04-25 17:00 14.47310 -90.54198 7263 ft 278 kts 143°
2026-04-25 17:00 14.45957 -90.52748 7844 ft 284 kts 126°
2026-04-25 17:00 14.44781 -90.51087 8458 ft 288 kts 126°
2026-04-25 17:01 14.43609 -90.49395 9123 ft 291 kts 121°
2026-04-25 17:01 14.42733 -90.47509 9762 ft 293 kts 106°
2026-04-25 17:01 14.42289 -90.45459 10379 ft 294 kts 93°
2026-04-25 17:01 14.42305 -90.43344 10935 ft 296 kts 81°
2026-04-25 17:02 14.42765 -90.41298 11463 ft 298 kts 68°
2026-04-25 17:02 14.43670 -90.39371 12054 ft 299 kts 55°
2026-04-25 17:02 14.44987 -90.37710 12608 ft 301 kts 42°
2026-04-25 17:02 14.46645 -90.36384 13191 ft 302 kts 30°
2026-04-25 17:03 14.48550 -90.35465 13800 ft 303 kts 17°
2026-04-25 17:03 14.50612 -90.35014 14340 ft 304 kts
2026-04-25 17:03 14.52730 -90.35063 14850 ft 307 kts 351°
2026-04-25 17:03 14.54810 -90.35619 15304 ft 311 kts 338°
2026-04-25 17:04 14.56727 -90.36674 15801 ft 315 kts 328°
2026-04-25 17:04 14.58606 -90.37940 15959 ft 330 kts 328°
2026-04-25 17:04 14.60578 -90.39261 16086 ft 345 kts 328°
2026-04-25 17:04 14.62641 -90.40639 16205 ft 360 kts 328°
2026-04-25 17:05 14.64783 -90.42066 16413 ft 371 kts 328°
2026-04-25 17:05 14.69176 -90.44989 17238 ft 379 kts 328°
2026-04-25 17:05 14.71401 -90.46473 17666 ft 383 kts 328°
2026-04-25 17:06 14.73647 -90.47972 18096 ft 386 kts 328°
2026-04-25 17:06 14.75908 -90.49482 18514 ft 389 kts 328°
2026-04-25 17:06 14.76749 -90.50044 18631 ft 389 kts 328°
2026-04-25 17:06 14.78270 -90.51062 18864 ft 391 kts 328°
2026-04-25 17:07 14.80562 -90.52597 19256 ft 393 kts 328°
2026-04-25 17:07 14.82863 -90.54137 19634 ft 395 kts 328°
2026-04-25 17:07 14.85179 -90.55689 20020 ft 397 kts 328°
2026-04-25 17:07 14.87500 -90.57244 20407 ft 399 kts 328°
2026-04-25 17:08 14.89834 -90.58806 20764 ft 401 kts 327°
2026-04-25 17:08 14.92183 -90.60376 21120 ft 403 kts 328°
2026-04-25 17:08 14.94543 -90.61952 21441 ft 405 kts 327°
2026-04-25 17:08 14.96909 -90.63535 21815 ft 406 kts 327°
2026-04-25 17:09 14.99287 -90.65128 22167 ft 408 kts 327°
2026-04-25 17:09 15.01675 -90.66730 22515 ft 410 kts 327°
2026-04-25 17:09 15.04078 -90.68339 22847 ft 412 kts 327°
2026-04-25 17:09 15.06490 -90.69955 23197 ft 414 kts 327°
2026-04-25 17:10 15.08913 -90.71583 23530 ft 416 kts 327°
2026-04-25 17:10 15.11348 -90.73218 23824 ft 418 kts 327°
2026-04-25 17:10 15.13791 -90.74856 24098 ft 420 kts 327°
2026-04-25 17:10 15.16242 -90.76503 24372 ft 421 kts 327°
2026-04-25 17:11 15.18671 -90.78135 24636 ft 422 kts 327°
2026-04-25 17:11 15.21139 -90.79792 24926 ft 424 kts 327°
2026-04-25 17:11 15.23615 -90.81455 25188 ft 425 kts 327°
2026-04-25 17:11 15.26104 -90.83127 25461 ft 427 kts 327°
2026-04-25 17:12 15.28598 -90.84807 25737 ft 428 kts 326°
2026-04-25 17:12 15.31102 -90.86492 26018 ft 430 kts 327°
2026-04-25 17:12 15.33610 -90.88179 26283 ft 431 kts 326°
2026-04-25 17:12 15.36130 -90.89875 26531 ft 432 kts 326°
2026-04-25 17:13 15.38657 -90.91577 26801 ft 434 kts 326°
2026-04-25 17:13 15.39512 -90.92152 26890 ft 434 kts 326°
2026-04-25 17:13 15.43737 -90.94997 27324 ft 437 kts 326°
2026-04-25 17:13 15.46290 -90.96716 27587 ft 438 kts 326°
2026-04-25 17:14 15.48854 -90.98440 27843 ft 440 kts 326°
2026-04-25 17:14 15.51428 -91.00169 28071 ft 442 kts 326°
2026-04-25 17:14 15.54008 -91.01907 28313 ft 443 kts 326°
2026-04-25 17:14 15.56593 -91.03656 28536 ft 445 kts 326°
2026-04-25 17:15 15.59189 -91.05411 28771 ft 446 kts 326°
2026-04-25 17:15 15.61795 -91.07170 29009 ft 448 kts 326°
2026-04-25 17:15 15.64415 -91.08937 29236 ft 449 kts 325°
2026-04-25 17:15 15.67032 -91.10705 29488 ft 449 kts 325°
2026-04-25 17:16 15.69645 -91.12471 29634 ft 449 kts 325°
2026-04-25 17:16 15.72271 -91.14244 29825 ft 451 kts 325°
2026-04-25 17:16 15.74904 -91.16021 30026 ft 452 kts 325°
2026-04-25 17:16 15.77545 -91.17805 30262 ft 452 kts 325°
2026-04-25 17:17 15.80181 -91.19587 30472 ft 452 kts 325°
2026-04-25 17:17 15.82812 -91.21366 30720 ft 451 kts 325°
2026-04-25 17:17 15.85445 -91.23148 31006 ft 451 kts 325°
2026-04-25 17:17 15.88068 -91.24927 31260 ft 450 kts 325°
2026-04-25 17:18 15.90690 -91.26707 31494 ft 450 kts 325°
2026-04-25 17:18 15.92424 -91.27882 31611 ft 450 kts 325°
2026-04-25 17:18 15.95924 -91.30254 31957 ft 449 kts 325°
2026-04-25 17:18 15.98540 -91.32026 32211 ft 448 kts 325°
2026-04-25 17:19 16.01115 -91.33775 32494 ft 447 kts 325°
2026-04-25 17:19 16.03722 -91.35545 32773 ft 447 kts 325°
2026-04-25 17:19 16.06299 -91.37343 33000 ft 445 kts 321°
2026-04-25 17:19 16.08614 -91.39469 33269 ft 442 kts 311°
2026-04-25 17:20 16.10613 -91.41893 33504 ft 441 kts 308°
2026-04-25 17:20 16.11909 -91.43523 33665 ft 441 kts 308°
2026-04-25 17:20 16.13869 -91.45986 33858 ft 442 kts 308°
2026-04-25 17:20 16.15826 -91.48444 33919 ft 439 kts 308°
2026-04-25 17:21 16.19716 -91.53323 33922 ft 436 kts 308°
2026-04-25 17:21 16.23587 -91.58178 33911 ft 436 kts 308°
2026-04-25 17:22 16.26797 -91.62216 33909 ft 436 kts 308°
2026-04-25 17:22 16.31287 -91.67863 33908 ft 435 kts 308°
2026-04-25 17:23 16.35151 -91.72723 33933 ft 435 kts 308°
2026-04-25 17:23 16.39015 -91.77578 33938 ft 435 kts 308°
2026-04-25 17:24 16.42870 -91.82426 33937 ft 434 kts 308°
2026-04-25 17:24 16.46717 -91.87275 33932 ft 435 kts 308°
2026-04-25 17:25 16.50578 -91.92151 33901 ft 437 kts 308°
2026-04-25 17:25 16.54456 -91.97055 33901 ft 439 kts 308°
2026-04-25 17:26 16.58347 -92.01979 33941 ft 440 kts 308°
2026-04-25 17:26 16.62245 -92.06912 33922 ft 441 kts 308°
2026-04-25 17:27 16.66151 -92.11846 33922 ft 441 kts 308°
2026-04-25 17:27 16.69401 -92.15951 33958 ft 442 kts 308°
2026-04-25 17:28 16.73940 -92.21702 33959 ft 442 kts 308°
2026-04-25 17:28 16.77846 -92.26655 33931 ft 442 kts 308°
2026-04-25 17:29 16.81750 -92.31602 33945 ft 442 kts 309°
2026-04-25 17:29 16.85655 -92.36555 33948 ft 442 kts 309°
2026-04-25 17:30 16.89557 -92.41505 33918 ft 442 kts 309°
2026-04-25 17:30 16.93454 -92.46464 33931 ft 442 kts 308°
2026-04-25 17:31 16.97352 -92.51429 33931 ft 442 kts 309°
2026-04-25 17:31 17.01250 -92.56394 33932 ft 442 kts 308°
2026-04-25 17:32 17.05141 -92.61361 33916 ft 441 kts 308°
2026-04-25 17:32 17.09033 -92.66323 33917 ft 441 kts 308°
2026-04-25 17:33 17.12924 -92.71279 33912 ft 441 kts 308°
2026-04-25 17:33 17.16809 -92.76239 33914 ft 440 kts 308°
2026-04-25 17:34 17.20687 -92.81197 33885 ft 440 kts 308°
2026-04-25 17:34 17.24563 -92.86147 33881 ft 440 kts 308°
2026-04-25 17:35 17.28437 -92.91104 33884 ft 440 kts 308°
2026-04-25 17:35 17.32305 -92.96069 33858 ft 440 kts 308°
2026-04-25 17:36 17.36176 -93.01034 33859 ft 440 kts 308°
2026-04-25 17:36 17.40051 -93.05990 33860 ft 439 kts 308°
2026-04-25 17:37 17.43889 -93.10907 33859 ft 439 kts 308°
2026-04-25 17:37 17.47749 -93.15854 33838 ft 438 kts 308°
2026-04-25 17:38 17.50970 -93.20002 33835 ft 438 kts 308°
2026-04-25 17:38 17.55435 -93.25757 33826 ft 438 kts 308°
2026-04-25 17:39 17.59276 -93.30712 33818 ft 438 kts 308°
2026-04-25 17:39 17.63117 -93.35664 33816 ft 438 kts 308°
2026-04-25 17:40 17.66955 -93.40619 33813 ft 438 kts 308°
2026-04-25 17:40 17.70798 -93.45571 33812 ft 438 kts 308°
2026-04-25 17:41 17.74643 -93.50519 33821 ft 437 kts 308°
2026-04-25 17:41 17.78483 -93.55474 33816 ft 437 kts 308°
2026-04-25 17:42 17.82313 -93.60429 33814 ft 437 kts 308°
2026-04-25 17:42 17.86141 -93.65390 33815 ft 437 kts 308°
2026-04-25 17:43 17.89968 -93.70348 33811 ft 437 kts 308°
2026-04-25 17:43 17.93795 -93.75308 33811 ft 437 kts 308°
2026-04-25 17:44 17.97596 -93.80243 33813 ft 437 kts 308°
2026-04-25 17:44 18.01430 -93.85210 33801 ft 437 kts 308°
2026-04-25 17:45 18.03993 -93.88531 33804 ft 437 kts 308°
2026-04-25 17:45 18.09081 -93.95153 33805 ft 438 kts 308°
2026-04-25 17:46 18.12901 -94.00135 33807 ft 437 kts 308°
2026-04-25 17:46 18.16722 -94.05123 33807 ft 438 kts 308°
2026-04-25 17:47 18.20552 -94.10101 33811 ft 438 kts 308°
2026-04-25 17:47 18.24389 -94.15078 33812 ft 438 kts 308°
2026-04-25 17:48 18.30124 -94.22576 33811 ft 438 kts 308°
2026-04-25 17:49 18.33924 -94.27542 33808 ft 438 kts 308°
2026-04-25 17:49 18.37749 -94.32541 33814 ft 439 kts 308°
2026-04-25 17:50 18.41573 -94.37548 33820 ft 439 kts 308°
2026-04-25 17:50 18.45392 -94.42556 33822 ft 438 kts 308°
2026-04-25 17:51 18.49209 -94.47561 33825 ft 438 kts 308°
2026-04-25 17:51 18.53028 -94.52561 33824 ft 438 kts 308°
2026-04-25 17:52 18.56840 -94.57566 33816 ft 438 kts 308°
2026-04-25 17:52 18.60644 -94.62562 33829 ft 436 kts 308°
2026-04-25 17:53 18.64433 -94.67543 33823 ft 435 kts 308°
2026-04-25 17:53 18.68215 -94.72517 33812 ft 435 kts 308°
2026-04-25 17:54 18.71968 -94.77462 33833 ft 434 kts 308°
2026-04-25 17:54 18.75744 -94.82440 33825 ft 434 kts 308°
2026-04-25 17:55 18.79519 -94.87414 33817 ft 434 kts 308°
2026-04-25 17:55 18.83290 -94.92393 33814 ft 434 kts 308°
2026-04-25 17:56 18.87061 -94.97379 33805 ft 434 kts 308°
2026-04-25 17:56 18.90833 -95.02365 33807 ft 435 kts 308°
2026-04-25 17:57 18.94605 -95.07361 33811 ft 435 kts 308°
2026-04-25 17:57 18.98376 -95.12350 33810 ft 434 kts 308°
2026-04-25 17:58 19.02143 -95.17338 33807 ft 434 kts 308°
2026-04-25 17:58 19.05911 -95.22347 33823 ft 434 kts 308°
2026-04-25 17:59 19.09647 -95.27307 33826 ft 434 kts 308°
2026-04-25 17:59 19.13405 -95.32297 33826 ft 433 kts 308°
2026-04-25 18:00 19.17154 -95.37279 33816 ft 433 kts 308°
2026-04-25 18:00 19.20899 -95.42265 33819 ft 433 kts 308°
2026-04-25 18:01 19.24643 -95.47254 33818 ft 432 kts 308°
2026-04-25 18:01 19.28380 -95.52243 33812 ft 432 kts 308°
2026-04-25 18:02 19.32122 -95.57234 33799 ft 433 kts 308°
2026-04-25 18:02 19.35879 -95.62238 33784 ft 435 kts 308°
2026-04-25 18:03 19.39641 -95.67262 33795 ft 436 kts 308°
2026-04-25 18:03 19.43407 -95.72306 33796 ft 436 kts 308°
2026-04-25 18:04 19.47178 -95.77357 33806 ft 437 kts 308°
2026-04-25 18:04 19.50922 -95.82372 33804 ft 437 kts 308°
2026-04-25 18:05 19.54693 -95.87422 33798 ft 437 kts 308°
2026-04-25 18:05 19.58460 -95.92473 33804 ft 437 kts 308°
2026-04-25 18:06 19.62224 -95.97529 33806 ft 437 kts 308°
2026-04-25 18:06 19.65984 -96.02595 33809 ft 437 kts 308°
2026-04-25 18:07 19.69743 -96.07663 33826 ft 437 kts 308°
2026-04-25 18:07 19.73504 -96.12731 33816 ft 437 kts 308°
2026-04-25 18:08 19.77264 -96.17795 33819 ft 437 kts 308°
2026-04-25 18:08 19.80386 -96.22007 33818 ft 436 kts 308°
2026-04-25 18:09 19.84139 -96.27067 33818 ft 436 kts 308°
2026-04-25 18:09 19.87890 -96.32122 33816 ft 436 kts 308°
2026-04-25 18:10 19.91637 -96.37186 33813 ft 436 kts 308°
2026-04-25 18:10 19.95374 -96.42253 33811 ft 435 kts 308°
2026-04-25 18:11 19.99093 -96.47289 33802 ft 436 kts 308°
2026-04-25 18:11 20.02838 -96.52365 33815 ft 436 kts 307°
2026-04-25 18:12 20.06576 -96.57431 33832 ft 435 kts 307°
2026-04-25 18:12 20.10310 -96.62503 33821 ft 435 kts 307°
2026-04-25 18:13 20.14036 -96.67573 33815 ft 435 kts 307°
2026-04-25 18:13 20.17762 -96.72644 33820 ft 435 kts 307°
2026-04-25 18:14 20.23666 -96.79976 33809 ft 435 kts 313°
2026-04-25 18:14 20.27875 -96.84614 33806 ft 436 kts 313°
2026-04-25 18:15 20.32064 -96.89281 33807 ft 436 kts 312°
2026-04-25 18:15 20.36191 -96.94011 33816 ft 436 kts 311°
2026-04-25 18:16 20.40299 -96.98762 33815 ft 436 kts 311°
2026-04-25 18:17 20.46452 -97.05837 33810 ft 436 kts 311°
2026-04-25 18:17 20.50573 -97.10578 33810 ft 435 kts 311°
2026-04-25 18:18 20.54691 -97.15316 33816 ft 435 kts 311°
2026-04-25 18:18 20.58804 -97.20055 33817 ft 435 kts 311°
2026-04-25 18:19 20.62915 -97.24798 33814 ft 435 kts 311°
2026-04-25 18:19 20.67024 -97.29540 33836 ft 435 kts 311°
2026-04-25 18:20 20.71126 -97.34281 33827 ft 434 kts 311°
2026-04-25 18:20 20.75231 -97.39017 33821 ft 434 kts 311°
2026-04-25 18:21 20.79327 -97.43749 33820 ft 433 kts 311°
2026-04-25 18:21 20.83408 -97.48491 33815 ft 433 kts 311°
2026-04-25 18:22 20.87467 -97.53203 33797 ft 433 kts 311°
2026-04-25 18:22 20.91556 -97.57939 33797 ft 433 kts 311°
2026-04-25 18:23 20.95641 -97.62679 33784 ft 433 kts 311°
2026-04-25 18:23 20.99726 -97.67427 33800 ft 433 kts 311°
2026-04-25 18:24 21.03800 -97.72174 33797 ft 433 kts 311°
2026-04-25 18:24 21.07874 -97.76919 33795 ft 432 kts 311°
2026-04-25 18:25 21.11945 -97.81656 33789 ft 432 kts 311°
2026-04-25 18:25 21.16013 -97.86394 33787 ft 432 kts 311°
2026-04-25 18:26 21.20075 -97.91140 33782 ft 432 kts 311°
2026-04-25 18:26 21.24135 -97.95886 33782 ft 432 kts 311°
2026-04-25 18:27 21.28204 -98.00640 33772 ft 432 kts 311°
2026-04-25 18:27 21.32238 -98.05361 33772 ft 432 kts 311°
2026-04-25 18:28 21.36297 -98.10119 33770 ft 432 kts 311°
2026-04-25 18:28 21.40358 -98.14877 33769 ft 432 kts 311°
2026-04-25 18:29 21.46454 -98.22017 33764 ft 433 kts 311°
2026-04-25 18:30 21.54568 -98.31568 33769 ft 433 kts 311°
2026-04-25 18:30 21.58632 -98.36350 33787 ft 433 kts 310°
2026-04-25 18:31 21.62693 -98.41136 33786 ft 433 kts 310°
2026-04-25 18:31 21.66748 -98.45917 33786 ft 432 kts 310°
2026-04-25 18:32 21.70795 -98.50700 33784 ft 432 kts 310°
2026-04-25 18:32 21.74842 -98.55475 33780 ft 432 kts 310°
2026-04-25 18:33 21.78884 -98.60246 33777 ft 431 kts 310°
2026-04-25 18:33 21.82918 -98.65020 33773 ft 431 kts 310°
2026-04-25 18:34 21.86946 -98.69802 33768 ft 431 kts 310°
2026-04-25 18:34 21.90945 -98.74548 33778 ft 431 kts 310°
2026-04-25 18:35 21.94974 -98.79315 33780 ft 430 kts 310°
2026-04-25 18:35 21.98991 -98.84081 33776 ft 429 kts 310°
2026-04-25 18:36 22.02998 -98.88850 33760 ft 429 kts 310°
2026-04-25 18:36 22.07009 -98.93630 33761 ft 430 kts 310°
2026-04-25 18:37 22.11026 -98.98409 33767 ft 430 kts 310°
2026-04-25 18:37 22.15035 -99.03184 33768 ft 430 kts 310°
2026-04-25 18:38 22.19044 -99.07968 33764 ft 429 kts 310°
2026-04-25 18:38 22.23045 -99.12749 33796 ft 429 kts 310°
2026-04-25 18:39 22.27008 -99.17491 33792 ft 428 kts 310°
2026-04-25 18:39 22.30992 -99.22259 33786 ft 428 kts 310°
2026-04-25 18:40 22.34973 -99.27022 33795 ft 427 kts 310°
2026-04-25 18:40 22.38949 -99.31794 33795 ft 427 kts 309°
2026-04-25 18:41 22.42927 -99.36565 33797 ft 427 kts 310°
2026-04-25 18:41 22.46909 -99.41335 33800 ft 427 kts 310°
2026-04-25 18:42 22.49549 -99.44503 33800 ft 427 kts 310°
2026-04-25 18:42 22.54861 -99.50894 33828 ft 427 kts 309°
2026-04-25 18:43 22.58793 -99.55628 33809 ft 425 kts 309°
2026-04-25 18:43 22.62739 -99.60386 33807 ft 425 kts 309°
2026-04-25 18:44 22.66678 -99.65145 33802 ft 425 kts 309°
2026-04-25 18:44 22.70621 -99.69915 33799 ft 425 kts 309°
2026-04-25 18:45 22.74563 -99.74680 33801 ft 425 kts 309°
2026-04-25 18:45 22.78502 -99.79453 33800 ft 425 kts 309°
2026-04-25 18:46 22.82442 -99.84222 33819 ft 424 kts 309°
2026-04-25 18:46 22.86374 -99.88990 33985 ft 424 kts 309°
2026-04-25 18:47 22.88335 -99.91371 34288 ft 422 kts 309°
2026-04-25 18:47 22.90287 -99.93740 34573 ft 420 kts 309°
2026-04-25 18:47 22.92230 -99.96097 34861 ft 418 kts 309°
2026-04-25 18:47 22.94167 -99.98452 35108 ft 417 kts 309°
2026-04-25 18:48 22.96095 -100.00797 35343 ft 416 kts 309°
2026-04-25 18:48 22.98020 -100.03139 35579 ft 415 kts 309°
2026-04-25 18:48 22.99941 -100.05474 35763 ft 415 kts 309°
2026-04-25 18:48 23.01864 -100.07811 35810 ft 414 kts 309°
2026-04-25 18:49 23.05699 -100.12481 35826 ft 414 kts 309°
2026-04-25 18:49 23.09521 -100.17152 35825 ft 414 kts 309°
2026-04-25 18:50 23.13340 -100.21808 35823 ft 412 kts 309°
2026-04-25 18:50 23.17145 -100.26451 35833 ft 411 kts 309°
2026-04-25 18:51 23.19662 -100.29526 35823 ft 411 kts 309°
2026-04-25 18:51 23.24720 -100.35719 35825 ft 411 kts 309°
2026-04-25 18:52 23.28519 -100.40375 35840 ft 412 kts 309°
2026-04-25 18:52 23.32324 -100.45039 35843 ft 411 kts 309°
2026-04-25 18:53 23.36122 -100.49706 35844 ft 411 kts 308°
2026-04-25 18:53 23.39916 -100.54364 35871 ft 411 kts 309°
2026-04-25 18:54 23.45607 -100.61353 35864 ft 411 kts 308°
2026-04-25 18:55 23.49393 -100.66019 35866 ft 411 kts 308°
2026-04-25 18:55 23.53158 -100.70660 35871 ft 411 kts 308°
2026-04-25 18:56 23.56948 -100.75340 35877 ft 411 kts 308°
2026-04-25 18:56 23.60736 -100.80014 35876 ft 411 kts 308°
2026-04-25 18:57 23.64519 -100.84694 35878 ft 411 kts 308°
2026-04-25 18:57 23.68308 -100.89378 35896 ft 412 kts 308°
2026-04-25 18:58 23.72096 -100.94066 35902 ft 412 kts 308°
2026-04-25 18:58 23.77743 -101.01077 35895 ft 411 kts 308°
2026-04-25 18:59 23.84650 -101.09662 35894 ft 410 kts 308°
2026-04-25 19:00 23.90315 -101.16697 35899 ft 411 kts 308°
2026-04-25 19:01 23.95971 -101.23742 35890 ft 411 kts 308°
2026-04-25 19:01 23.99737 -101.28439 35894 ft 410 kts 308°
2026-04-25 19:02 24.05363 -101.35458 35901 ft 410 kts 308°
2026-04-25 19:03 24.10364 -101.41713 35897 ft 410 kts 308°
2026-04-25 19:03 24.14752 -101.47208 35903 ft 410 kts 308°
2026-04-25 19:04 24.20102 -101.54490 35900 ft 408 kts 304°
2026-04-25 19:05 24.26841 -101.64448 35903 ft 408 kts 304°
2026-04-25 19:06 24.30269 -101.69419 35899 ft 408 kts 304°
2026-04-25 19:06 24.35425 -101.76864 35901 ft 408 kts 304°
2026-04-25 19:07 24.40537 -101.84293 35908 ft 408 kts 304°
2026-04-25 19:08 24.45668 -101.91747 35901 ft 408 kts 304°
2026-04-25 19:09 24.51923 -102.00854 35900 ft 408 kts 304°
2026-04-25 19:10 24.57615 -102.09161 35915 ft 407 kts 304°
2026-04-25 19:10 24.61020 -102.14131 35914 ft 407 kts 304°
2026-04-25 19:11 24.64396 -102.19064 35906 ft 406 kts 304°
2026-04-25 19:11 24.67791 -102.24029 35909 ft 406 kts 304°
2026-04-25 19:12 24.71180 -102.28999 35906 ft 405 kts 304°
2026-04-25 19:12 24.74567 -102.33977 35894 ft 405 kts 304°
2026-04-25 19:13 24.77947 -102.38941 35887 ft 405 kts 304°
2026-04-25 19:13 24.81310 -102.43871 35901 ft 405 kts 304°
2026-04-25 19:14 24.84692 -102.48843 35894 ft 405 kts 304°
2026-04-25 19:14 24.88049 -102.53785 35890 ft 404 kts 304°
2026-04-25 19:15 24.91415 -102.58745 35885 ft 404 kts 304°
2026-04-25 19:15 24.94787 -102.63708 35875 ft 404 kts 304°
2026-04-25 19:16 24.98147 -102.68677 35873 ft 404 kts 304°
2026-04-25 19:16 25.01506 -102.73648 35872 ft 404 kts 304°
2026-04-25 19:17 25.04867 -102.78618 35845 ft 404 kts 304°
2026-04-25 19:17 25.08227 -102.83603 35871 ft 405 kts 303°
2026-04-25 19:18 25.11579 -102.88588 35867 ft 404 kts 303°
2026-04-25 19:18 25.14934 -102.93573 35863 ft 404 kts 303°
2026-04-25 19:19 25.18263 -102.98523 35865 ft 404 kts 303°
2026-04-25 19:19 25.21611 -103.03510 35857 ft 404 kts 303°
2026-04-25 19:20 25.24958 -103.08490 35854 ft 404 kts 303°
2026-04-25 19:20 25.28305 -103.13477 35838 ft 403 kts 303°
2026-04-25 19:21 25.31646 -103.18467 35857 ft 404 kts 304°
2026-04-25 19:21 25.36666 -103.25952 35933 ft 404 kts 303°
2026-04-25 19:22 25.39980 -103.30913 35963 ft 403 kts 303°
2026-04-25 19:23 25.44970 -103.38397 36005 ft 403 kts 303°
2026-04-25 19:23 25.49957 -103.45883 36022 ft 402 kts 303°
2026-04-25 19:24 25.53276 -103.50868 35987 ft 402 kts 303°
2026-04-25 19:25 25.59917 -103.60870 35929 ft 404 kts 304°
2026-04-25 19:25 25.63246 -103.65887 35921 ft 404 kts 303°
2026-04-25 19:26 25.66576 -103.70904 35881 ft 404 kts 303°
2026-04-25 19:26 25.69898 -103.75921 35838 ft 403 kts 303°
2026-04-25 19:27 25.72653 -103.80093 35827 ft 403 kts 303°
2026-04-25 19:27 25.76509 -103.85933 35842 ft 404 kts 303°
2026-04-25 19:28 25.79847 -103.90992 35836 ft 403 kts 303°
2026-04-25 19:28 25.83136 -103.95986 35838 ft 403 kts 303°
2026-04-25 19:29 25.86444 -104.01012 35835 ft 403 kts 303°
2026-04-25 19:29 25.89750 -104.06035 35844 ft 403 kts 303°
2026-04-25 19:30 25.93045 -104.11065 35837 ft 402 kts 303°
2026-04-25 19:30 25.96342 -104.16086 35826 ft 401 kts 303°
2026-04-25 19:31 25.99633 -104.21104 35821 ft 401 kts 303°
2026-04-25 19:31 26.02915 -104.26120 35834 ft 401 kts 302°
2026-04-25 19:32 26.06201 -104.31139 35826 ft 401 kts 302°
2026-04-25 19:32 26.08375 -104.34458 35812 ft 401 kts 302°
2026-04-25 19:33 26.12758 -104.41178 35817 ft 401 kts 302°
2026-04-25 19:33 26.16030 -104.46196 35819 ft 401 kts 302°
2026-04-25 19:34 26.19298 -104.51228 35824 ft 400 kts 302°
2026-04-25 19:34 26.22560 -104.56250 35822 ft 400 kts 302°
2026-04-25 19:35 26.25807 -104.61246 35818 ft 400 kts 302°
2026-04-25 19:35 26.29090 -104.66305 35824 ft 400 kts 302°
2026-04-25 19:36 26.32328 -104.71304 35820 ft 400 kts 302°
2026-04-25 19:36 26.35587 -104.76334 35820 ft 400 kts 302°
2026-04-25 19:37 26.38856 -104.81366 35821 ft 400 kts 302°
2026-04-25 19:37 26.42117 -104.86412 35848 ft 400 kts 302°
2026-04-25 19:38 26.45362 -104.91447 35842 ft 399 kts 302°
2026-04-25 19:38 26.48605 -104.96472 35855 ft 398 kts 301°
2026-04-25 19:39 26.51830 -105.01492 35846 ft 397 kts 301°
2026-04-25 19:39 26.55033 -105.06471 35841 ft 397 kts 301°
2026-04-25 19:40 26.58249 -105.11477 35843 ft 396 kts 301°
2026-04-25 19:40 26.61468 -105.16486 35838 ft 396 kts 301°
2026-04-25 19:41 26.64673 -105.21489 35839 ft 396 kts 301°
2026-04-25 19:41 26.66817 -105.24836 35837 ft 396 kts 301°
2026-04-25 19:42 26.71080 -105.31501 35826 ft 396 kts 301°
2026-04-25 19:42 26.74285 -105.36520 35825 ft 396 kts 301°
2026-04-25 19:43 26.77488 -105.41527 35812 ft 396 kts 301°
2026-04-25 19:43 26.80663 -105.46512 35810 ft 395 kts 301°
2026-04-25 19:44 26.83855 -105.51531 35817 ft 396 kts 301°
2026-04-25 19:44 26.87051 -105.56553 35814 ft 396 kts 301°
2026-04-25 19:45 26.90246 -105.61573 35812 ft 396 kts 301°
2026-04-25 19:45 26.92902 -105.65760 35844 ft 396 kts 300°
2026-04-25 19:46 26.96086 -105.70793 35841 ft 396 kts 300°
2026-04-25 19:46 26.99276 -105.75824 35833 ft 396 kts 300°
2026-04-25 19:47 27.02466 -105.80863 35841 ft 396 kts 300°
2026-04-25 19:47 27.05656 -105.85912 35840 ft 396 kts 300°
2026-04-25 19:48 27.08846 -105.90967 35847 ft 397 kts 300°
2026-04-25 19:48 27.12031 -105.96018 35856 ft 396 kts 300°
2026-04-25 19:49 27.14677 -106.00217 35863 ft 396 kts 300°
2026-04-25 19:49 27.18372 -106.06088 35856 ft 396 kts 300°
2026-04-25 19:50 27.23149 -106.13681 35851 ft 396 kts 300°
2026-04-25 19:51 27.26324 -106.18739 35842 ft 396 kts 300°
2026-04-25 19:51 27.29495 -106.23818 35854 ft 396 kts 300°
2026-04-25 19:52 27.32659 -106.28878 35852 ft 395 kts 300°
2026-04-25 19:52 27.35825 -106.33943 35841 ft 396 kts 300°
2026-04-25 19:53 27.38991 -106.39009 35876 ft 396 kts 299°
2026-04-25 19:53 27.42165 -106.44090 35871 ft 397 kts 299°
2026-04-25 19:54 27.45334 -106.49180 35887 ft 397 kts 299°
2026-04-25 19:54 27.48485 -106.54230 35871 ft 396 kts 300°
2026-04-25 19:55 27.51654 -106.59330 35878 ft 397 kts 299°
2026-04-25 19:55 27.54822 -106.64436 35902 ft 397 kts 299°
2026-04-25 19:56 27.57995 -106.69545 35897 ft 397 kts 299°
2026-04-25 19:56 27.61139 -106.74621 35878 ft 397 kts 299°
2026-04-25 19:57 27.64306 -106.79746 35920 ft 398 kts 299°
2026-04-25 19:57 27.67477 -106.84871 35910 ft 398 kts 299°
2026-04-25 19:58 27.70644 -106.90006 35898 ft 398 kts 299°
2026-04-25 19:58 27.73813 -106.95145 35916 ft 399 kts 299°
2026-04-25 19:59 27.76973 -107.00283 35918 ft 398 kts 299°
2026-04-25 19:59 27.80109 -107.05387 35924 ft 398 kts 299°
2026-04-25 20:00 27.83267 -107.10526 35912 ft 398 kts 299°
2026-04-25 20:00 27.86429 -107.15672 35917 ft 399 kts 299°
2026-04-25 20:01 27.91165 -107.23403 35951 ft 399 kts 299°
2026-04-25 20:01 27.94323 -107.28563 35948 ft 400 kts 299°
2026-04-25 20:02 27.97481 -107.33727 35967 ft 399 kts 299°
2026-04-25 20:02 28.00639 -107.38904 35964 ft 399 kts 299°
2026-04-25 20:03 28.03787 -107.44072 35940 ft 399 kts 298°
2026-04-25 20:03 28.06925 -107.49231 35961 ft 400 kts 299°
2026-04-25 20:04 28.10084 -107.54423 35985 ft 401 kts 299°
2026-04-25 20:04 28.13250 -107.59629 35983 ft 401 kts 299°
2026-04-25 20:05 28.16411 -107.64837 36002 ft 401 kts 299°
2026-04-25 20:05 28.19571 -107.70053 35986 ft 401 kts 298°
2026-04-25 20:06 28.22724 -107.75278 35995 ft 401 kts 298°
2026-04-25 20:06 28.25872 -107.80494 35992 ft 401 kts 298°
2026-04-25 20:07 28.29017 -107.85706 35980 ft 401 kts 298°
2026-04-25 20:07 28.32172 -107.90933 35993 ft 401 kts 298°
2026-04-25 20:08 28.35325 -107.96168 36016 ft 402 kts 298°
2026-04-25 20:08 28.38472 -108.01411 35978 ft 401 kts 298°
2026-04-25 20:09 28.41621 -108.06664 36000 ft 402 kts 298°
2026-04-25 20:09 28.44767 -108.11918 35998 ft 402 kts 298°
2026-04-25 20:10 28.47913 -108.17169 35979 ft 402 kts 298°
2026-04-25 20:10 28.51062 -108.22418 35985 ft 402 kts 298°
2026-04-25 20:11 28.54206 -108.27674 35977 ft 402 kts 298°
2026-04-25 20:11 28.57347 -108.32938 35981 ft 402 kts 298°
2026-04-25 20:12 28.60479 -108.38195 35982 ft 401 kts 298°
2026-04-25 20:12 28.62550 -108.41673 35983 ft 401 kts 298°
2026-04-25 20:13 28.66714 -108.48690 35943 ft 403 kts 298°
2026-04-25 20:13 28.69867 -108.54004 35929 ft 407 kts 297°
2026-04-25 20:14 28.73038 -108.59366 35919 ft 410 kts 298°
2026-04-25 20:14 28.76215 -108.64760 35910 ft 410 kts 298°
2026-04-25 20:15 28.79406 -108.70160 35944 ft 411 kts 298°
2026-04-25 20:15 28.82599 -108.75564 35942 ft 410 kts 297°
2026-04-25 20:16 28.85768 -108.80964 35954 ft 409 kts 297°
2026-04-25 20:16 28.88939 -108.86363 35947 ft 409 kts 297°
2026-04-25 20:17 28.92104 -108.91748 35926 ft 408 kts 297°
2026-04-25 20:17 28.95256 -108.97130 35910 ft 406 kts 297°
2026-04-25 20:18 28.98402 -109.02517 35916 ft 408 kts 297°
2026-04-25 20:18 29.01537 -109.07876 35922 ft 408 kts 297°
2026-04-25 20:19 29.04685 -109.13269 35918 ft 407 kts 296°
2026-04-25 20:19 29.07822 -109.18655 35913 ft 407 kts 297°
2026-04-25 20:20 29.10958 -109.24032 35899 ft 407 kts 297°
2026-04-25 20:20 29.14084 -109.29416 35889 ft 406 kts 296°
2026-04-25 20:21 29.17200 -109.34783 35877 ft 402 kts 296°
2026-04-25 20:21 29.20277 -109.40099 35865 ft 400 kts 296°
2026-04-25 20:22 29.22330 -109.43653 35873 ft 400 kts 296°
2026-04-25 20:22 29.26421 -109.50731 35870 ft 402 kts 296°
2026-04-25 20:23 29.29493 -109.56069 35859 ft 401 kts 296°
2026-04-25 20:23 29.32565 -109.61397 35859 ft 401 kts 296°
2026-04-25 20:24 29.35638 -109.66728 35862 ft 401 kts 296°
2026-04-25 20:24 29.38696 -109.72034 35867 ft 401 kts 296°
2026-04-25 20:25 29.41771 -109.77376 35862 ft 401 kts 297°
2026-04-25 20:25 29.44843 -109.82723 35897 ft 402 kts 296°
2026-04-25 20:26 29.47903 -109.88077 35886 ft 401 kts 296°
2026-04-25 20:26 29.50959 -109.93425 35882 ft 401 kts 296°
2026-04-25 20:27 29.54019 -109.98778 35875 ft 400 kts 295°
2026-04-25 20:27 29.57076 -110.04132 35878 ft 401 kts 296°
2026-04-25 20:28 29.60127 -110.09483 35881 ft 400 kts 296°
2026-04-25 20:28 29.63177 -110.14838 35881 ft 400 kts 295°
2026-04-25 20:29 29.66216 -110.20183 35907 ft 400 kts 295°
2026-04-25 20:29 29.69259 -110.25538 35899 ft 400 kts 295°
2026-04-25 20:30 29.72291 -110.30889 35894 ft 399 kts 295°
2026-04-25 20:30 29.75300 -110.36209 35890 ft 399 kts 295°
2026-04-25 20:31 29.78326 -110.41552 35890 ft 398 kts 295°
2026-04-25 20:31 29.81344 -110.46899 35888 ft 398 kts 295°
2026-04-25 20:32 29.83869 -110.51383 35888 ft 398 kts 295°
2026-04-25 20:32 29.87370 -110.57599 35907 ft 398 kts 295°
2026-04-25 20:33 29.89893 -110.62082 35897 ft 398 kts 295°
2026-04-25 20:33 29.92391 -110.66528 35891 ft 397 kts 295°
2026-04-25 20:34 29.95901 -110.72775 35885 ft 397 kts 295°
2026-04-25 20:34 29.98881 -110.78090 35875 ft 397 kts 295°
2026-04-25 20:35 30.01879 -110.83443 35881 ft 397 kts 294°
2026-04-25 20:35 30.04873 -110.88801 35868 ft 397 kts 294°
2026-04-25 20:36 30.07866 -110.94164 35890 ft 397 kts 294°
2026-04-25 20:36 30.10849 -110.99528 35881 ft 397 kts 294°
2026-04-25 20:37 30.13844 -111.04887 35872 ft 397 kts 294°
2026-04-25 20:37 30.16855 -111.10237 35869 ft 397 kts 294°
2026-04-25 20:38 30.19858 -111.15589 35870 ft 397 kts 294°
2026-04-25 20:38 30.22856 -111.20951 35857 ft 397 kts 294°
2026-04-25 20:39 30.25852 -111.26315 35856 ft 397 kts 294°
2026-04-25 20:39 30.28342 -111.30779 35886 ft 397 kts 294°
2026-04-25 20:40 30.31844 -111.37064 35867 ft 397 kts 294°
2026-04-25 20:40 30.34840 -111.42440 35864 ft 397 kts 294°
2026-04-25 20:41 30.37828 -111.47822 35857 ft 397 kts 294°
2026-04-25 20:41 30.40798 -111.53173 35854 ft 397 kts 294°
2026-04-25 20:42 30.43783 -111.58565 35855 ft 397 kts 294°
2026-04-25 20:42 30.46766 -111.63957 35851 ft 397 kts 294°
2026-04-25 20:43 30.49747 -111.69356 35880 ft 397 kts 293°
2026-04-25 20:43 30.52728 -111.74744 35868 ft 396 kts 293°
2026-04-25 20:44 30.55694 -111.80129 35870 ft 396 kts 293°
2026-04-25 20:44 30.58656 -111.85520 35857 ft 396 kts 293°
2026-04-25 20:45 30.61615 -111.90917 35852 ft 396 kts 293°
2026-04-25 20:45 30.64577 -111.96314 35852 ft 397 kts 293°
2026-04-25 20:46 30.67545 -112.01715 35850 ft 397 kts 293°
2026-04-25 20:46 30.70506 -112.07121 35883 ft 396 kts 292°
2026-04-25 20:47 30.73456 -112.12530 35877 ft 395 kts 292°
2026-04-25 20:47 30.76398 -112.17927 35871 ft 395 kts 292°
2026-04-25 20:48 30.79323 -112.23302 35868 ft 395 kts 292°
2026-04-25 20:48 30.82271 -112.28720 35865 ft 396 kts 292°
2026-04-25 20:49 30.85212 -112.34135 35874 ft 396 kts 292°
2026-04-25 20:49 30.88154 -112.39555 35913 ft 396 kts 292°
2026-04-25 20:50 30.91092 -112.44969 35889 ft 395 kts 292°
2026-04-25 20:50 30.94025 -112.50384 35888 ft 395 kts 292°
2026-04-25 20:51 30.96934 -112.55763 35889 ft 395 kts 292°
2026-04-25 20:51 30.99856 -112.61180 35892 ft 395 kts 292°
2026-04-25 20:52 31.02297 -112.65724 35888 ft 395 kts 292°
2026-04-25 20:52 31.05691 -112.72028 35892 ft 395 kts 292°
2026-04-25 20:53 31.08616 -112.77454 35923 ft 395 kts 291°
2026-04-25 20:53 31.11531 -112.82886 35913 ft 395 kts 291°
2026-04-25 20:54 31.14447 -112.88327 35905 ft 395 kts 291°
2026-04-25 20:54 31.17356 -112.93770 35897 ft 395 kts 291°
2026-04-25 20:55 31.20270 -112.99221 35896 ft 396 kts 291°
2026-04-25 20:55 31.23179 -113.04677 35901 ft 396 kts 291°
2026-04-25 20:56 31.26091 -113.10136 35909 ft 396 kts 291°
2026-04-25 20:56 31.29003 -113.15602 35913 ft 396 kts 291°
2026-04-25 20:57 31.31914 -113.21084 35915 ft 397 kts 291°
2026-04-25 20:57 31.34808 -113.26541 35914 ft 397 kts 291°
2026-04-25 20:58 31.37731 -113.32036 35914 ft 398 kts 291°
2026-04-25 20:58 31.40780 -113.37479 35914 ft 400 kts 292°
2026-04-25 20:59 31.43878 -113.42900 35911 ft 401 kts 292°
2026-04-25 20:59 31.46959 -113.48337 35898 ft 400 kts 292°
2026-04-25 21:00 31.49009 -113.51983 35887 ft 400 kts 292°
2026-04-25 21:01 31.54588 -113.61978 35879 ft 400 kts 292°
2026-04-25 21:01 31.57633 -113.67444 35874 ft 400 kts 292°
2026-04-25 21:02 31.60682 -113.72909 35872 ft 400 kts 292°
2026-04-25 21:02 31.63734 -113.78380 35874 ft 400 kts 291°
2026-04-25 21:03 31.66776 -113.83857 35900 ft 400 kts 292°
2026-04-25 21:03 31.69816 -113.89330 35892 ft 400 kts 292°
2026-04-25 21:04 31.72863 -113.94813 35884 ft 400 kts 291°
2026-04-25 21:04 31.75894 -114.00299 35874 ft 400 kts 291°
2026-04-25 21:05 31.78924 -114.05786 35871 ft 400 kts 291°
2026-04-25 21:05 31.81954 -114.11276 35863 ft 400 kts 291°
2026-04-25 21:06 31.84983 -114.16778 35885 ft 401 kts 291°
2026-04-25 21:06 31.88015 -114.22291 35877 ft 401 kts 291°
2026-04-25 21:07 31.91031 -114.27771 35874 ft 402 kts 291°
2026-04-25 21:07 31.94069 -114.33299 35870 ft 402 kts 291°
2026-04-25 21:08 31.97100 -114.38830 35869 ft 402 kts 291°
2026-04-25 21:08 32.00131 -114.44365 35863 ft 402 kts 291°
2026-04-25 21:09 32.04681 -114.52694 35878 ft 403 kts 291°
2026-04-25 21:09 32.07720 -114.58268 35868 ft 404 kts 291°
2026-04-25 21:10 32.10757 -114.63841 35865 ft 404 kts 291°
2026-04-25 21:10 32.13793 -114.69422 35855 ft 404 kts 291°
2026-04-25 21:11 32.16810 -114.74983 35854 ft 404 kts 291°
2026-04-25 21:11 32.19839 -114.80577 35880 ft 405 kts 291°
2026-04-25 21:12 32.22872 -114.86177 35864 ft 405 kts 291°
2026-04-25 21:12 32.24901 -114.89924 35862 ft 405 kts 291°
2026-04-25 21:13 32.28931 -114.97393 35856 ft 405 kts 291°
2026-04-25 21:13 32.31955 -115.03006 35870 ft 405 kts 291°
2026-04-25 21:14 32.34980 -115.08630 35873 ft 405 kts 291°
2026-04-25 21:14 32.38011 -115.14262 35892 ft 405 kts 291°
2026-04-25 21:15 32.41034 -115.19892 35889 ft 405 kts 291°
2026-04-25 21:15 32.44050 -115.25524 35887 ft 405 kts 291°
2026-04-25 21:16 32.47062 -115.31161 35884 ft 405 kts 291°
2026-04-25 21:16 32.50076 -115.36793 35888 ft 405 kts 291°
2026-04-25 21:17 32.53069 -115.42396 35873 ft 405 kts 291°
2026-04-25 21:17 32.56075 -115.48032 35881 ft 405 kts 291°
2026-04-25 21:18 32.59081 -115.53678 35881 ft 405 kts 291°
2026-04-25 21:18 32.62081 -115.59330 35870 ft 405 kts 291°
2026-04-25 21:19 32.65083 -115.64985 35904 ft 405 kts 291°
2026-04-25 21:19 32.68080 -115.70647 35885 ft 405 kts 291°
2026-04-25 21:20 32.70083 -115.74443 35881 ft 406 kts 291°
2026-04-25 21:20 32.73561 -115.81045 35909 ft 406 kts 291°
2026-04-25 21:21 32.75060 -115.83895 35603 ft 407 kts 291°
2026-04-25 21:21 32.76547 -115.86704 35378 ft 396 kts 291°
2026-04-25 21:21 32.78001 -115.89451 35133 ft 391 kts 291°
2026-04-25 21:21 32.79437 -115.92179 34893 ft 389 kts 291°
2026-04-25 21:22 32.80862 -115.94907 34662 ft 388 kts 290°
2026-04-25 21:22 32.82259 -115.97642 34439 ft 386 kts 290°
2026-04-25 21:22 32.83629 -116.00378 34207 ft 385 kts 289°
2026-04-25 21:22 32.84980 -116.03093 33981 ft 378 kts 289°
2026-04-25 21:23 32.86322 -116.05797 33731 ft 379 kts 289°
2026-04-25 21:23 32.87663 -116.08500 33468 ft 380 kts 289°
2026-04-25 21:23 32.89008 -116.11202 33220 ft 379 kts 290°
2026-04-25 21:23 32.90352 -116.13903 32968 ft 379 kts 290°
2026-04-25 21:24 32.91695 -116.16595 32706 ft 378 kts 290°
2026-04-25 21:24 32.93037 -116.19280 32444 ft 377 kts 290°
2026-04-25 21:24 32.94372 -116.21956 32180 ft 376 kts 291°
2026-04-25 21:24 32.95705 -116.24630 31872 ft 372 kts 291°
2026-04-25 21:25 32.97023 -116.27269 31404 ft 369 kts 291°
2026-04-25 21:25 32.98330 -116.29885 30918 ft 366 kts 292°
2026-04-25 21:25 32.99626 -116.32484 30437 ft 364 kts 292°
2026-04-25 21:25 33.00911 -116.35071 29948 ft 361 kts 292°
2026-04-25 21:26 33.02185 -116.37641 29423 ft 358 kts 292°
2026-04-25 21:26 33.03446 -116.40181 28976 ft 354 kts 292°
2026-04-25 21:26 33.04678 -116.42700 28528 ft 347 kts 289°
2026-04-25 21:26 33.05670 -116.45281 28104 ft 340 kts 287°
2026-04-25 21:27 33.06624 -116.47846 27682 ft 337 kts 287°
2026-04-25 21:27 33.07571 -116.50379 27281 ft 332 kts 287°
2026-04-25 21:27 33.08496 -116.52848 26885 ft 329 kts 287°
2026-04-25 21:27 33.09429 -116.55329 26496 ft 325 kts 287°
2026-04-25 21:28 33.10349 -116.57785 26108 ft 325 kts 287°
2026-04-25 21:28 33.11268 -116.60249 25714 ft 325 kts 287°
2026-04-25 21:28 33.12187 -116.62710 25321 ft 324 kts 287°
2026-04-25 21:28 33.13069 -116.65178 24919 ft 321 kts 282°
2026-04-25 21:29 33.13618 -116.67724 24499 ft 314 kts 274°
2026-04-25 21:29 33.13991 -116.70297 24071 ft 314 kts 274°
2026-04-25 21:29 33.14365 -116.72865 23655 ft 314 kts 274°
2026-04-25 21:29 33.14740 -116.75434 23177 ft 314 kts 274°
2026-04-25 21:30 33.15112 -116.77995 22737 ft 312 kts 274°
2026-04-25 21:30 33.15484 -116.80541 22307 ft 310 kts 274°
2026-04-25 21:30 33.15856 -116.83072 21881 ft 309 kts 274°
2026-04-25 21:30 33.16105 -116.84746 21603 ft 309 kts 274°
2026-04-25 21:31 33.16601 -116.88108 21066 ft 307 kts 274°
2026-04-25 21:31 33.16966 -116.90612 20639 ft 306 kts 274°
2026-04-25 21:31 33.17325 -116.93106 20234 ft 305 kts 274°
2026-04-25 21:31 33.17684 -116.95596 19808 ft 304 kts 273°
2026-04-25 21:32 33.18045 -116.98083 19400 ft 304 kts 274°
2026-04-25 21:32 33.18403 -117.00568 19006 ft 304 kts 274°
2026-04-25 21:32 33.18761 -117.03051 18602 ft 304 kts 274°
2026-04-25 21:32 33.19120 -117.05531 18189 ft 303 kts 274°
2026-04-25 21:33 33.19478 -117.08010 17759 ft 303 kts 274°
2026-04-25 21:33 33.19834 -117.10482 17332 ft 302 kts 274°
2026-04-25 21:33 33.20191 -117.12945 16984 ft 300 kts 274°
2026-04-25 21:33 33.20545 -117.15383 16612 ft 297 kts 274°
2026-04-25 21:34 33.20895 -117.17813 16243 ft 296 kts 273°
2026-04-25 21:34 33.21241 -117.20230 15864 ft 295 kts 273°
2026-04-25 21:34 33.21580 -117.22611 15490 ft 294 kts 273°
2026-04-25 21:34 33.21921 -117.25015 15117 ft 293 kts 273°
2026-04-25 21:35 33.22263 -117.27417 14742 ft 292 kts 273°
2026-04-25 21:35 33.22601 -117.29808 14369 ft 291 kts 273°
2026-04-25 21:35 33.22938 -117.32185 13999 ft 290 kts 273°
2026-04-25 21:35 33.23291 -117.34539 13888 ft 287 kts 274°
2026-04-25 21:36 33.23655 -117.36880 13794 ft 287 kts 274°
2026-04-25 21:36 33.24025 -117.39223 13681 ft 286 kts 274°
2026-04-25 21:36 33.24393 -117.41561 13567 ft 286 kts 274°
2026-04-25 21:36 33.24762 -117.43900 13460 ft 286 kts 274°
2026-04-25 21:37 33.25129 -117.46235 13350 ft 286 kts 274°
2026-04-25 21:37 33.25372 -117.47780 13287 ft 286 kts 274°
2026-04-25 21:37 33.25859 -117.50909 13131 ft 287 kts 274°
2026-04-25 21:37 33.26379 -117.53228 13027 ft 293 kts 285°
2026-04-25 21:38 33.27365 -117.55399 12829 ft 301 kts 295°
2026-04-25 21:38 33.28509 -117.57491 12641 ft 301 kts 295°
2026-04-25 21:38 33.29649 -117.59587 12446 ft 300 kts 295°
2026-04-25 21:38 33.30781 -117.61681 12262 ft 300 kts 295°
2026-04-25 21:39 33.31907 -117.63778 12069 ft 299 kts 295°
2026-04-25 21:39 33.33028 -117.65874 11886 ft 299 kts 296°
2026-04-25 21:39 33.34149 -117.67966 11700 ft 299 kts 296°
2026-04-25 21:39 33.35268 -117.70055 11506 ft 298 kts 296°
2026-04-25 21:40 33.36384 -117.72141 11321 ft 298 kts 296°
2026-04-25 21:40 33.37502 -117.74224 11131 ft 298 kts 297°
2026-04-25 21:40 33.38623 -117.76305 10944 ft 297 kts 297°
2026-04-25 21:40 33.39741 -117.78382 10742 ft 297 kts 297°
2026-04-25 21:41 33.40855 -117.80456 10572 ft 297 kts 297°
2026-04-25 21:41 33.41968 -117.82536 10381 ft 296 kts 297°
2026-04-25 21:41 33.43077 -117.84607 10202 ft 292 kts 297°
2026-04-25 21:41 33.44160 -117.86632 9959 ft 286 kts 298°
2026-04-25 21:42 33.45211 -117.88599 9820 ft 283 kts 298°
2026-04-25 21:42 33.46269 -117.90583 9639 ft 282 kts 299°
2026-04-25 21:42 33.47505 -117.92419 9466 ft 286 kts 313°
2026-04-25 21:42 33.49131 -117.93814 9285 ft 290 kts 329°
2026-04-25 21:43 33.51015 -117.94718 9111 ft 293 kts 336°
2026-04-25 21:43 33.52926 -117.95539 8914 ft 291 kts 337°
2026-04-25 21:43 33.54831 -117.96363 8734 ft 290 kts 336°
2026-04-25 21:43 33.56728 -117.97187 8547 ft 289 kts 336°
2026-04-25 21:44 33.58617 -117.98007 8372 ft 288 kts 336°
2026-04-25 21:44 33.60497 -117.98825 8189 ft 287 kts 336°
2026-04-25 21:44 33.64255 -118.00395 7783 ft 285 kts 339°
2026-04-25 21:45 33.66153 -118.01096 7536 ft 284 kts 341°
2026-04-25 21:45 33.67405 -118.01544 7378 ft 283 kts 341°
2026-04-25 21:45 33.69927 -118.02440 7085 ft 281 kts 340°
2026-04-25 21:45 33.71801 -118.03110 7001 ft 280 kts 341°
2026-04-25 21:46 33.73657 -118.03780 7011 ft 277 kts 341°
2026-04-25 21:46 33.75504 -118.04452 6980 ft 277 kts 341°
2026-04-25 21:46 33.77349 -118.05124 6975 ft 277 kts 340°
2026-04-25 21:46 33.79172 -118.05821 6863 ft 274 kts 339°
2026-04-25 21:47 33.80946 -118.06617 6513 ft 271 kts 336°
2026-04-25 21:47 33.82675 -118.07461 6170 ft 266 kts 335°
2026-04-25 21:47 33.84375 -118.08307 5860 ft 262 kts 335°
2026-04-25 21:47 33.86026 -118.09124 5551 ft 250 kts 335°
2026-04-25 21:48 33.87598 -118.09897 5267 ft 245 kts 336°
2026-04-25 21:48 33.89191 -118.10594 5007 ft 242 kts 347°
2026-04-25 21:48 33.90847 -118.10796 4766 ft 235 kts 357°
2026-04-25 21:48 33.92443 -118.11031 4404 ft 230 kts 342°
2026-04-25 21:49 33.93836 -118.11827 4247 ft 215 kts 321°
2026-04-25 21:49 33.94886 -118.13015 4123 ft 203 kts 304°
2026-04-25 21:49 33.95574 -118.14457 3946 ft 197 kts 288°
2026-04-25 21:49 33.95882 -118.16036 3739 ft 192 kts 270°
2026-04-25 21:50 33.95820 -118.17632 3516 ft 190 kts 260°
2026-04-25 21:50 33.95661 -118.19218 3271 ft 191 kts 260°
2026-04-25 21:50 33.95507 -118.20763 3036 ft 180 kts 259°
2026-04-25 21:50 33.95410 -118.21732 2863 ft 172 kts 259°
2026-04-25 21:51 33.95224 -118.23583 2561 ft 162 kts 258°
2026-04-25 21:51 33.95092 -118.24895 2345 ft 156 kts 259°
2026-04-25 21:51 33.94961 -118.26185 2138 ft 155 kts 261°
2026-04-25 21:51 33.94833 -118.27453 1937 ft 148 kts 258°
2026-04-25 21:52 33.94710 -118.28679 1757 ft 146 kts 258°
2026-04-25 21:52 33.94588 -118.29879 1538 ft 143 kts 260°
2026-04-25 21:52 33.94470 -118.31041 1342 ft 137 kts 259°
2026-04-25 21:52 33.94358 -118.32154 1150 ft 134 kts 259°
2026-04-25 21:53 33.94247 -118.33261 1011 ft 132 kts 260°
2026-04-25 21:53 33.94134 -118.34357 797 ft 134 kts 260°
2026-04-25 21:53 33.94021 -118.35454 610 ft 130 kts 262°
2026-04-25 21:53 33.93910 -118.36544 416 ft 130 kts 262°
2026-04-25 21:54 33.93802 -118.37619 241 ft 129 kts 260°
2026-04-25 21:54 33.93696 -118.38687 114 ft 127 kts 258°
2026-04-25 21:54 33.93597 -118.39633 94 ft 94 kts 262°
2026-04-25 21:54 33.93539 -118.40203 94 ft 46 kts 263°
2026-04-25 21:55 33.93555 -118.40522 95 ft 24 kts 290°
2026-04-25 21:55 33.93596 -118.40679 94 ft 20 kts 275°
2026-04-25 21:55 33.93596 -118.40803 95 ft 13 kts 279°
2026-04-25 21:55 33.93607 -118.40846 94 ft 0 kts 290°
2026-04-25 21:56 33.93637 -118.40888 95 ft 13 kts 328°
2026-04-25 21:56 33.93719 -118.40904 96 ft 12 kts 353°
2026-04-25 21:57 33.93799 -118.40915 93 ft 9 kts 354°
2026-04-25 21:57 33.93854 -118.40931 94 ft 7 kts 319°
2026-04-25 21:57 33.93859 -118.41006 93 ft 10 kts 262°
2026-04-25 21:57 33.93848 -118.41102 93 ft 13 kts 262°
2026-04-25 21:58 33.93906 -118.41167 94 ft 13 kts 352°
2026-04-25 21:58 33.93991 -118.41180 93 ft 12 kts 353°
2026-04-25 21:58 33.94089 -118.41194 93 ft 14 kts 353°
2026-04-25 21:58 33.94185 -118.41208 93 ft 13 kts 353°
2026-04-25 21:59 33.94273 -118.41221 93 ft 12 kts 353°
2026-04-25 21:59 33.94355 -118.41234 93 ft 11 kts 352°
2026-04-25 21:59 33.94429 -118.41245 95 ft 10 kts 352°
2026-04-25 22:00 33.94580 -118.41267 93 ft 18 kts 352°
2026-04-25 22:00 33.94650 -118.41277 93 ft 7 kts 355°
2026-04-25 22:00 33.94707 -118.41217 94 ft 16 kts 67°
2026-04-25 22:00 33.94727 -118.41116 94 ft 12 kts 82°
2026-04-25 22:01 33.94737 -118.41025 93 ft 10 kts 83°
2026-04-25 22:01 33.94738 -118.40942 93 ft 9 kts 109°
2026-04-25 22:01 33.94687 -118.40907 94 ft 9 kts 174°
2026-04-25 22:01 33.94665 -118.40904 94 ft 10 kts 173°
2026-04-25 22:02 33.94598 -118.40945 93 ft 7 kts 297°
2026-04-25 22:02 33.94606 -118.40963 93 ft 1 kts 297°
2026-04-25 22:02 33.94608 -118.40967 93 ft 0 kts 297°
2026-04-25 22:02 33.94610 -118.40974 93 ft 1 kts 295°